Symphonie 2 Rocket - Orbit

View from above orbital plane
View from above orbital plane
View from above satellite
View from above satellite

Ground track
Ground track

The orbit data is extracted from the following two-line orbital elements,

1 08133U 75077B   13168.98408899  .00233132  70859-5  62075-3 0  1000
2 08133 025.2932 035.3598 0049572 276.0040 186.1560 15.90820306954312
Epoch (UTC): 17 June 2013 23:37:05
Eccentricity: 0.0049572
inclination: 25.2932°
perigee height: 267 km
apogee height: 333 km
right ascension of ascending node: 35.3598°
argument of perigee: 276.0040°
revolutions per day: 15.90820306
mean anomaly at epoch: 186.1560°
orbit number at epoch: 95431

The dashed part of the orbit path shows where the satellite is in the earth's shadow,  

Developed and maintained by Chris Peat, Heavens-Above GmbH. Please read the updated FAQ before sending e-mail. Imprint. DLR